SAUDISAT 5B (43833 NORAD) Tracking and Keplerian Element Data

This shows tracking and keplerian element data for the satellite.

Feedback or suggestion? Click here.




ElementValue
Catalog43833
NameSAUDISAT 5B
Epoch Orbit33989
Epoch Day35.18077461
Epoch Year2025
RAAN103.8109
Inclination97.3835
Eccentricity0.0013511
Argument of Perigee92.9375
Mean Anonmoly267.3407
Mean Motion15.21376775
Decay Rate8.482E-05
L11 43833U 18102C 25035.18077461 .00008482 00000+0 38035-3 0 9995
L22 43833 97.3835 103.8109 0013511 92.9375 267.3407 15.21376775339891



Live tracking and technical data element details for SAUDISAT 5B (NORAD 43833). SAUDISAT 5B can be tracked NOW for your location showing map with azimuth and elevation plus other details from your city location.







IsCatalogInMostPopularTable: catalog: 43833, numindb: 395
Update: records affected: 1



GetName: 43833 SAUDISAT 5B

Hit Count: updated at: Thu, 22 May 2025 03:10:08 GMT